TimePDT,TemperatureF,Dew PointF,Humidity,Sea Level PressureIn,VisibilityMPH,Wind Direction,Wind SpeedMPH,Gust SpeedMPH,PrecipitationIn,Events,Conditions,WindDirDegrees,DateUTC
12:52 AM,77.0,52.0,42,29.88,10.0,South,4.6,-,N/A,,Clear,170,2013-07-03 07:52:00
1:52 AM,75.0,55.0,50,29.88,10.0,SW,4.6,-,N/A,,Clear,230,2013-07-03 08:52:00
2:52 AM,73.9,52.0,46,29.89,10.0,SW,5.8,-,N/A,,Clear,220,2013-07-03 09:52:00
3:52 AM,71.1,55.0,57,29.91,10.0,WSW,5.8,-,N/A,,Clear,240,2013-07-03 10:52:00
4:52 AM,72.0,52.0,49,29.92,10.0,WSW,9.2,-,N/A,,Clear,250,2013-07-03 11:52:00
5:52 AM,71.1,52.0,51,29.95,10.0,WSW,6.9,-,N/A,,Clear,250,2013-07-03 12:52:00
6:52 AM,73.0,55.0,53,29.96,10.0,West,8.1,-,N/A,,Clear,270,2013-07-03 13:52:00
7:52 AM,80.1,48.0,32,29.96,10.0,WNW,6.9,-,N/A,,Clear,300,2013-07-03 14:52:00
8:52 AM,84.9,44.1,24,29.97,10.0,North,10.4,-,N/A,,Clear,350,2013-07-03 15:52:00
9:52 AM,88.0,43.0,21,29.96,10.0,NNW,9.2,-,N/A,,Clear,340,2013-07-03 16:52:00
10:52 AM,88.0,42.1,20,29.95,10.0,NNE,6.9,-,N/A,,Clear,20,2013-07-03 17:52:00
11:52 AM,91.0,39.0,16,29.95,10.0,NW,4.6,-,N/A,,Clear,320,2013-07-03 18:52:00
12:52 PM,91.0,44.1,20,29.94,10.0,SSW,9.2,-,N/A,,Clear,200,2013-07-03 19:52:00
1:52 PM,93.0,39.9,16,29.93,10.0,SW,12.7,-,N/A,,Clear,230,2013-07-03 20:52:00
2:52 PM,93.9,43.0,17,29.91,10.0,SW,11.5,-,N/A,,Clear,230,2013-07-03 21:52:00
3:52 PM,93.9,35.1,13,29.88,10.0,SW,5.8,-,N/A,,Clear,220,2013-07-03 22:52:00
4:52 PM,95.0,32.0,11,29.86,10.0,WSW,10.4,-,N/A,,Clear,250,2013-07-03 23:52:00
5:52 PM,95.0,35.1,12,29.84,10.0,SSW,12.7,-,N/A,,Clear,210,2013-07-04 00:52:00
6:52 PM,93.0,35.1,13,29.82,10.0,WSW,13.8,-,N/A,,Clear,240,2013-07-04 01:52:00
7:52 PM,90.0,41.0,18,29.82,10.0,SW,11.5,-,N/A,,Clear,230,2013-07-04 02:52:00
8:52 PM,84.0,37.9,19,29.82,10.0,West,12.7,-,N/A,,Clear,280,2013-07-04 03:52:00
9:52 PM,78.1,37.0,23,29.83,10.0,West,8.1,-,N/A,,Clear,280,2013-07-04 04:52:00
10:52 PM,77.0,36.0,23,-9999,10.0,West,10.4,-,N/A,,Clear,270,2013-07-04 05:52:00
11:52 PM,73.9,39.9,29,-9999,10.0,West,9.2,-,N/A,,Clear,260,2013-07-04 06:52:00